Date String (YYYY-MM-DD hh:mm:ss) UTC,Instrument flags,Ambient pressure (hPa),Sample flow (lpm),Bypass flow (lpm),Sample temperature (°C),Ambient temperature (°C),ASC tube jacket temperature (°C),LED temperature (°C),Box temperature (°C),Sample RH (%),Span deviation,Mass concentration (μg/m³),Mass concentration (μg/m³),Mass concentration (μg/m³)
DateTimeUTC,F1_M11,P_M11,Q1_M11,Q2_M11,T1_M11,T2_M11,T3_M11,T4_M11,T5_M11,U1_M11,ZSPAN_M11,X0_M11,X2_M11,X1_M11
2022-01-12 09:00:00,,0829.7,4.99,0.00,22.7,21.9,00.0,31.8,24.5,07.7,0000.0,0000.76,0000.11,0000.00
2022-01-12 09:01:00,,0829.7,5.01,0.00,22.7,21.9,00.0,31.8,24.4,07.8,0000.0,0000.78,0000.11,0000.01
2022-01-12 09:02:00,,0829.8,5.01,0.00,22.7,22.0,00.0,31.8,24.5,07.7,0000.0,0000.77,0000.10,0000.01
2022-01-12 09:03:00,,0829.8,4.99,0.00,22.7,22.0,00.0,31.8,24.5,07.6,0000.0,0000.82,0000.11,0000.01
2022-01-12 09:04:00,,0829.8,5.01,0.00,22.8,22.0,00.0,31.8,24.5,07.8,0000.0,0001.13,0000.12,0000.01
2022-01-12 09:05:00,,0829.8,4.99,0.00,22.8,22.0,00.0,31.8,24.5,08.1,0000.0,0001.88,0000.13,0000.01
2022-01-12 09:06:00,,0829.8,5.01,0.00,22.8,22.0,00.0,31.8,24.5,08.0,0000.0,0001.83,0000.12,0000.01
2022-01-12 09:07:00,,0829.8,5.01,0.00,22.8,22.0,00.0,31.8,24.5,08.0,0000.0,0001.81,0000.11,0000.01
2022-01-12 09:08:00,,0829.8,4.99,0.00,22.8,22.0,00.0,31.8,24.5,08.1,0000.0,0001.80,0000.11,0000.01
2022-01-12 09:09:00,,0829.8,5.00,0.00,22.8,22.1,00.0,31.8,24.6,08.5,0000.0,0001.94,0000.12,0000.01
2022-01-12 09:10:00,,0829.8,5.01,0.00,22.8,22.1,00.0,31.8,24.6,08.7,0000.0,0002.04,0000.11,0000.01
2022-01-12 09:11:00,,0829.8,4.99,0.00,22.8,22.1,00.0,31.8,24.6,08.3,0000.0,0002.08,0000.11,0000.01
2022-01-12 09:12:00,,0829.8,5.01,0.00,22.8,22.1,00.0,31.8,24.6,08.3,0000.0,0002.06,0000.10,0000.01
2022-01-12 09:13:00,,0829.8,5.00,0.00,22.8,22.1,00.0,31.8,24.6,08.1,0000.0,0002.08,0000.11,0000.01
2022-01-12 09:14:00,,0829.8,5.01,0.00,22.8,22.1,00.0,31.8,24.6,07.9,0000.0,0002.02,0000.10,0000.01
2022-01-12 09:15:00,,0829.7,5.00,0.00,22.9,22.1,00.0,31.8,24.6,07.9,0000.0,0001.50,0000.08,0000.01
2022-01-12 09:16:00,,0829.7,5.00,0.00,22.9,22.1,00.0,31.8,24.6,07.8,0000.0,0001.46,0000.07,0000.01
2022-01-12 09:17:00,,0829.8,5.00,0.00,22.9,22.1,00.0,31.8,24.6,07.8,0000.0,0002.56,0000.07,0000.01
2022-01-12 09:18:00,,0829.8,5.01,0.00,22.9,22.1,00.0,31.8,24.6,08.3,0000.0,0004.46,0000.09,0000.01
2022-01-12 09:19:00,,0829.9,4.99,0.00,22.9,22.2,00.0,31.8,24.6,08.7,0000.0,0004.73,0000.11,0000.01
2022-01-12 09:20:00,,0830.0,5.00,0.00,22.9,22.2,00.0,31.8,24.7,08.8,0000.0,0004.66,0000.10,0000.01
2022-01-12 09:21:00,,0830.0,4.99,0.00,22.9,22.2,00.0,31.8,24.7,09.1,0000.0,0005.28,0000.09,0000.01
2022-01-12 09:22:00,,0830.0,5.01,0.00,22.9,22.2,00.0,31.9,24.7,09.2,0000.0,0005.22,0000.09,0000.01
2022-01-12 09:23:00,,0829.9,5.00,0.00,22.9,22.2,00.0,31.9,24.7,09.3,0000.0,0005.21,0000.09,0000.00
2022-01-12 09:24:00,,0829.8,5.00,0.00,22.9,22.2,00.0,31.9,24.7,09.0,0000.0,0005.26,0000.08,0000.00
2022-01-12 09:25:00,,0829.8,5.01,0.00,22.9,22.2,00.0,31.9,24.7,08.8,0000.0,0005.92,0000.08,0000.00
2022-01-12 09:26:00,,0829.8,4.99,0.00,22.9,22.2,00.0,31.9,24.7,09.0,0000.0,0005.92,0000.09,0000.01
2022-01-12 09:27:00,,0829.6,5.00,0.00,22.9,22.2,00.0,31.9,24.7,09.1,0000.0,0005.22,0000.08,0000.01
2022-01-12 09:28:00,,0829.7,5.01,0.00,22.9,22.2,00.0,31.9,24.7,08.8,0000.0,0004.21,0000.08,0000.01
2022-01-12 09:29:00,,0829.8,5.00,0.00,22.9,22.2,00.0,31.9,24.7,08.5,0000.0,0002.28,0000.07,0000.01
2022-01-12 09:30:00,,0829.7,4.99,0.00,22.9,22.2,00.0,31.9,24.7,08.9,0000.0,0002.14,0000.06,0000.01
2022-01-12 09:31:00,,0829.8,5.01,0.00,22.9,22.2,00.0,31.9,24.8,08.9,0000.0,0002.03,0000.06,0000.01
2022-01-12 09:32:00,,0829.8,5.01,0.00,23.0,22.3,00.0,31.9,24.7,09.0,0000.0,0002.66,0000.09,0000.01
2022-01-12 09:33:00,,0829.8,4.99,0.00,23.0,22.3,00.0,31.9,24.8,09.4,0000.0,0002.64,0000.07,0000.01
2022-01-12 09:34:00,,0829.8,5.01,0.00,23.0,22.3,00.0,31.9,24.8,09.1,0000.0,0002.65,0000.08,0000.01
2022-01-12 09:35:00,,0829.8,4.99,0.00,23.0,22.3,00.0,31.9,24.8,08.5,0000.0,0002.75,0000.10,0000.01
2022-01-12 09:36:00,,0829.8,5.01,0.00,23.0,22.3,00.0,31.9,24.8,08.2,0000.0,0002.45,0000.12,0000.01
2022-01-12 09:37:00,,0829.9,5.01,0.00,23.0,22.3,00.0,31.9,24.8,08.1,0000.0,0002.50,0000.13,0000.02
2022-01-12 09:38:00,,0830.0,5.00,0.00,23.0,22.3,00.0,31.9,24.8,08.1,0000.0,0002.50,0000.12,0000.02
2022-01-12 09:39:00,,0830.0,5.01,0.00,23.0,22.3,00.0,32.0,24.8,08.7,0000.0,0002.47,0000.12,0000.02
2022-01-12 09:40:00,,0830.0,4.99,0.00,23.0,22.3,00.0,32.0,24.8,08.9,0000.0,0002.68,0000.11,0000.01
2022-01-12 09:41:00,,0830.0,5.00,0.00,23.0,22.3,00.0,32.0,24.8,08.8,0000.0,0003.99,0000.10,0000.01
2022-01-12 09:42:00,,0830.0,4.99,0.00,23.0,22.3,00.0,32.0,24.8,08.9,0000.0,0003.46,0000.12,0000.01
2022-01-12 09:43:00,,0830.0,5.01,0.00,23.0,22.3,00.0,32.0,24.8,09.0,0000.0,0002.32,0000.10,0000.01
2022-01-12 09:44:00,,0830.0,4.99,0.00,23.0,22.3,00.0,32.0,24.8,09.3,0000.0,0002.35,0000.11,0000.01
2022-01-12 09:45:00,,0830.1,5.01,0.00,23.0,22.3,00.0,32.0,24.8,09.5,0000.0,0003.34,0000.10,0000.01
2022-01-12 09:46:00,,0830.1,4.99,0.00,23.0,22.3,00.0,32.0,24.8,09.3,0000.0,0003.06,0000.10,0000.01
2022-01-12 09:47:00,,0830.0,4.99,0.00,23.0,22.3,00.0,32.0,24.8,09.1,0000.0,0002.85,0000.08,0000.01
2022-01-12 09:48:00,,0829.9,5.01,0.00,23.0,22.3,00.0,32.0,24.8,09.0,0000.0,0002.90,0000.10,0000.01
2022-01-12 09:49:00,,0830.0,4.98,0.00,23.0,22.3,00.0,32.0,24.8,09.1,0000.0,0002.91,0000.11,0000.01
2022-01-12 09:50:00,,0830.0,5.01,0.00,23.0,22.3,00.0,32.0,24.8,09.2,0000.0,0003.97,0000.11,0000.01
2022-01-12 09:51:00,,0830.0,5.01,0.00,23.0,22.3,00.0,32.0,24.8,09.3,0000.0,0003.59,0000.11,0000.01
2022-01-12 09:52:00,,0830.0,4.99,0.00,23.0,22.3,00.0,32.0,24.8,09.2,0000.0,0002.41,0000.10,0000.01
2022-01-12 09:53:00,,0829.9,5.01,0.00,23.0,22.3,00.0,32.0,24.8,09.1,0000.0,0002.35,0000.08,0000.01
2022-01-12 09:54:00,,0829.8,4.99,0.00,23.0,22.3,00.0,32.0,24.8,09.1,0000.0,0003.69,0000.07,0000.01
2022-01-12 09:55:00,,0829.9,5.00,0.00,23.1,22.3,00.0,32.0,24.8,09.1,0000.0,0004.04,0000.08,0000.01
2022-01-12 09:56:00,,0829.8,4.99,0.00,23.1,22.3,00.0,32.0,24.8,09.2,0000.0,0003.17,0000.09,0000.01
2022-01-12 09:57:00,,0829.8,5.01,0.00,23.1,22.3,00.0,32.0,24.8,09.2,0000.0,0003.13,0000.07,0000.01
2022-01-12 09:58:00,,0829.8,4.99,0.00,23.1,22.3,00.0,32.0,24.8,09.2,0000.0,0003.13,0000.07,0000.00
2022-01-12 09:59:00,,0829.7,5.00,0.00,23.1,22.3,00.0,32.0,24.8,09.2,0000.0,0003.27,0000.04,0000.00
